When you browse on this site, cookies collect data to enhance your experience and personalize the content and advertising you see.
Visit our Privacy Policy to learn more. By continuing to use the site, you agree to this use of cookies and data.
  • In Czech Republic
  • List of Countries
  • For 7 days
  • Water Temperature
  • Weather Map
  • Weather Widgets
  • user-avatar
    Login

    Hourly Weather Hobart

    Today, 18 August, Sunday

    Time Temperature Precipitation Wind Pressure Humidity
    00:00 +4°C° 0 mm 4 mps 746 mmHg 87%
    01:00 +4°C° 0 mm 4 mps 745 mmHg 86%
    02:00 +4°C° 0 mm 4 mps 744 mmHg 88%
    03:00 +4°C° 0 mm 4 mps 743 mmHg 90%
    04:00 +3°C° 0 mm 5 mps 743 mmHg 90%
    05:00 +4°C° 0 mm 4 mps 742 mmHg 91%
    06:00 +4°C° 0 mm 4 mps 741 mmHg 91%
    07:00 +4°C° 0 mm 4 mps 741 mmHg 92%
    08:00 +6°C° 0 mm 4 mps 740 mmHg 80%
    09:00 +10°C° 0 mm 4 mps 739 mmHg 68%
    10:00 +12°C° 0 mm 5 mps 739 mmHg 53%
    11:00 +13°C° 0 mm 5 mps 738 mmHg 53%
    12:00 +14°C° 0 mm 6 mps 737 mmHg 53%
    13:00 +15°C° 0 mm 6 mps 737 mmHg 53%
    14:00 +15°C° 0 mm 5 mps 736 mmHg 53%
    15:00 +15°C° 0 mm 5 mps 736 mmHg 53%
    16:00 +14°C° 0 mm 5 mps 735 mmHg 55%
    17:00 +12°C° 0.7 mm 4 mps 735 mmHg 67%
    18:00 +10°C° 0.7 mm 3 mps 735 mmHg 79%
    19:00 +8°C° 0.7 mm 3 mps 736 mmHg 92%
    20:00 +7°C° 0.3 mm 3 mps 735 mmHg 92%
    21:00 +7°C° 0.3 mm 2 mps 735 mmHg 93%
    22:00 +6°C° 0 mm 2 mps 735 mmHg 91%
    23:00 +4°C° 0.1 mm 3 mps 735 mmHg 91%

    Tomorrow, 19 August, Monday

    Time Temperature Precipitation Wind Pressure Humidity
    00:00 +4°C° 0.1 mm 3 mps 735 mmHg 91%
    01:00 +4°C° 0.1 mm 4 mps 735 mmHg 91%
    02:00 +4°C° 0.1 mm 4 mps 735 mmHg 90%
    03:00 +2°C° 0.1 mm 5 mps 736 mmHg 90%
    04:00 +1°C° 0.1 mm 5 mps 736 mmHg 90%
    05:00 +1°C° 0.1 mm 5 mps 736 mmHg 90%
    06:00 +1°C° 0.1 mm 5 mps 737 mmHg 90%
    07:00 0°C° 0.1 mm 4 mps 738 mmHg 90%
    08:00 +1°C° 0.1 mm 5 mps 738 mmHg 83%
    09:00 +2°C° 0.1 mm 6 mps 738 mmHg 77%
    10:00 +4°C° 0.1 mm 7 mps 739 mmHg 70%
    11:00 +4°C° 0.3 mm 7 mps 739 mmHg 69%
    12:00 +4°C° 0.3 mm 7 mps 739 mmHg 68%
    13:00 +5°C° 0.3 mm 7 mps 740 mmHg 66%
    14:00 +5°C° 0.1 mm 7 mps 740 mmHg 66%
    15:00 +5°C° 0.1 mm 6 mps 740 mmHg 65%
    16:00 +5°C° 0.1 mm 6 mps 740 mmHg 64%
    17:00 +5°C° 0.1 mm 5 mps 740 mmHg 72%
    18:00 +5°C° 0.1 mm 4 mps 740 mmHg 80%
    19:00 +4°C° 0.1 mm 3 mps 741 mmHg 88%
    20:00 +5°C° 0.6 mm 4 mps 740 mmHg 89%
    21:00 +6°C° 0.6 mm 4 mps 740 mmHg 90%
    22:00 +7°C° 0.6 mm 5 mps 740 mmHg 92%
    23:00 +7°C° 0.9 mm 5 mps 740 mmHg 92%

    Day after tomorrow, 20 August, Tuesday

    Time Temperature Precipitation Wind Pressure Humidity
    00:00 +7°C° 0.9 mm 5 mps 740 mmHg 91%
    01:00 +7°C° 0.9 mm 6 mps 740 mmHg 91%
    02:00 +7°C° 0.6 mm 6 mps 740 mmHg 91%
    03:00 +8°C° 0.6 mm 6 mps 739 mmHg 90%
    04:00 +8°C° 0.6 mm 6 mps 739 mmHg 90%
    05:00 +8°C° 0.5 mm 5 mps 739 mmHg 90%
    06:00 +8°C° 0.5 mm 5 mps 739 mmHg 91%
    07:00 +8°C° 0.5 mm 5 mps 739 mmHg 91%
    08:00 +8°C° 0.7 mm 5 mps 739 mmHg 91%
    09:00 +8°C° 0.7 mm 5 mps 739 mmHg 91%
    10:00 +8°C° 0.7 mm 5 mps 739 mmHg 91%
    11:00 +9°C° 0.3 mm 5 mps 738 mmHg 89%
    12:00 +9°C° 0.3 mm 5 mps 738 mmHg 88%
    13:00 +9°C° 0.3 mm 6 mps 737 mmHg 87%
    14:00 +9°C° 0.8 mm 6 mps 736 mmHg 87%
    15:00 +9°C° 0.8 mm 7 mps 736 mmHg 88%
    16:00 +8°C° 0.8 mm 7 mps 735 mmHg 89%
    17:00 +8°C° 2.2 mm 7 mps 734 mmHg 88%
    18:00 +6°C° 2.2 mm 7 mps 734 mmHg 88%
    19:00 +6°C° 2.2 mm 8 mps 734 mmHg 87%
    20:00 +5°C° 0.2 mm 8 mps 735 mmHg 88%
    21:00 +4°C° 0.2 mm 8 mps 735 mmHg 88%
    22:00 +4°C° 0.2 mm 8 mps 735 mmHg 89%
    23:00 +4°C° 0.2 mm 8 mps 735 mmHg 89%

    21 August, Wednesday

    Time Temperature Precipitation Wind Pressure Humidity
    00:00 +4°C° 0.2 mm 8 mps 735 mmHg 89%
    01:00 +2°C° 0.2 mm 8 mps 735 mmHg 89%
    02:00 +2°C° 0.2 mm 8 mps 734 mmHg 87%
    03:00 +2°C° 0.2 mm 8 mps 734 mmHg 85%
    04:00 +2°C° 0.2 mm 9 mps 734 mmHg 83%
    05:00 +2°C° 0.2 mm 8 mps 734 mmHg 85%
    06:00 +2°C° 0.2 mm 8 mps 735 mmHg 87%
    07:00 +2°C° 0.2 mm 8 mps 735 mmHg 89%
    08:00 +2°C° 0.3 mm 8 mps 735 mmHg 87%
    09:00 +3°C° 0.3 mm 9 mps 736 mmHg 84%
    10:00 +3°C° 0.3 mm 9 mps 737 mmHg 82%
    11:00 +3°C° 0.3 mm 9 mps 737 mmHg 81%
    12:00 +5°C° 0.3 mm 9 mps 738 mmHg 80%
    13:00 +5°C° 0.3 mm 9 mps 738 mmHg 80%
    14:00 +5°C° 0.2 mm 9 mps 739 mmHg 78%
    15:00 +5°C° 0.2 mm 9 mps 739 mmHg 76%
    16:00 +4°C° 0.2 mm 8 mps 740 mmHg 75%
    17:00 +4°C° 0.1 mm 8 mps 740 mmHg 79%
    18:00 +3°C° 0.1 mm 7 mps 741 mmHg 82%
    19:00 +2°C° 0.1 mm 6 mps 741 mmHg 86%
    20:00 +2°C° 0.1 mm 6 mps 741 mmHg 87%
    21:00 +2°C° 0.1 mm 6 mps 741 mmHg 88%
    22:00 +2°C° 0.1 mm 6 mps 741 mmHg 89%
    23:00 +2°C° 0.3 mm 7 mps 741 mmHg 90%

    22 August, Thursday

    Time Temperature Precipitation Wind Pressure Humidity
    00:00 +2°C° 0.3 mm 7 mps 741 mmHg 90%
    01:00 +2°C° 0.3 mm 7 mps 741 mmHg 90%
    02:00 +2°C° 0.5 mm 7 mps 741 mmHg 90%
    03:00 0°C° 0.5 mm 7 mps 742 mmHg 90%
    04:00 0°C° 0.5 mm 7 mps 742 mmHg 90%
    05:00 0°C° 0.2 mm 7 mps 743 mmHg 90%
    06:00 +1°C° 0.2 mm 6 mps 744 mmHg 91%
    07:00 +1°C° 0.2 mm 5 mps 745 mmHg 92%
    08:00 +2°C° 0.1 mm 6 mps 745 mmHg 86%
    09:00 +3°C° 0.1 mm 6 mps 746 mmHg 80%
    10:00 +4°C° 0.1 mm 6 mps 747 mmHg 74%
    11:00 +4°C° 0 mm 6 mps 747 mmHg 67%
    12:00 +5°C° 0 mm 6 mps 747 mmHg 60%
    13:00 +7°C° 0 mm 6 mps 748 mmHg 54%
    14:00 +7°C° 0 mm 5 mps 748 mmHg 52%
    15:00 +7°C° 0 mm 4 mps 748 mmHg 51%
    16:00 +9°C° 0 mm 3 mps 748 mmHg 50%
    17:00 +7°C° 0 mm 3 mps 749 mmHg 58%
    18:00 +4°C° 0 mm 3 mps 749 mmHg 65%
    19:00 +4°C° 0 mm 2 mps 749 mmHg 73%
    20:00 +3°C° 0 mm 2 mps 749 mmHg 77%
    21:00 +3°C° 0 mm 2 mps 750 mmHg 81%
    22:00 +3°C° 0 mm 2 mps 750 mmHg 85%
    23:00 +3°C° 0 mm 2 mps 749 mmHg 88%

    23 August, Friday

    Time Temperature Precipitation Wind Pressure Humidity
    00:00 +3°C° 0 mm 2 mps 749 mmHg 90%
    01:00 +3°C° 0 mm 2 mps 749 mmHg 93%
    02:00 +3°C° 0 mm 2 mps 749 mmHg 94%
    03:00 +4°C° 0 mm 2 mps 748 mmHg 94%
    04:00 +4°C° 0 mm 2 mps 748 mmHg 94%
    05:00 +4°C° 0 mm 2 mps 748 mmHg 94%
    06:00 +4°C° 0 mm 2 mps 748 mmHg 94%
    07:00 +4°C° 0 mm 2 mps 748 mmHg 94%
    08:00 +6°C° 0 mm 2 mps 747 mmHg 84%
    09:00 +8°C° 0 mm 3 mps 747 mmHg 74%
    10:00 +10°C° 0 mm 3 mps 747 mmHg 65%
    11:00 +11°C° 0 mm 3 mps 746 mmHg 62%
    12:00 +12°C° 0 mm 3 mps 745 mmHg 60%
    13:00 +13°C° 0 mm 3 mps 744 mmHg 57%
    14:00 +12°C° 0 mm 3 mps 743 mmHg 60%
    15:00 +11°C° 0 mm 4 mps 743 mmHg 63%
    16:00 +11°C° 0 mm 4 mps 742 mmHg 65%
    17:00 +10°C° 0 mm 4 mps 742 mmHg 69%
    18:00 +8°C° 0 mm 4 mps 741 mmHg 72%
    19:00 +8°C° 0 mm 4 mps 741 mmHg 76%
    20:00 +7°C° 0 mm 4 mps 740 mmHg 76%
    21:00 +7°C° 0 mm 4 mps 740 mmHg 77%
    22:00 +7°C° 0 mm 4 mps 739 mmHg 77%
    23:00 +7°C° 0 mm 5 mps 738 mmHg 74%
    Show more